Dean International
Flight School

Career Spotlight

Mika

Mika

Congratulations to Mika from Khazakstan. She recently sent us this photo of her flying an Airbus airliner.

More...
Mika's Success Story
close

Congratulations to Mika from Khazakstan. She recently sent us this photo of her flying an Airbus airliner.

Mario

Mario

My dreams could not have been realized if I wouldn't have been part of the Dean International family.

More...
Mario's Success Story
close

"My dreams could not have been realized if I wouldn't have been part of the Dean International family. Thank you Robert, thanks to all my co-workers, and thanks to all of my students!"

Fernando

Fernando

I am now working as a First Officer at TACA and am enjoying every moment of it.

More...
Fernando's Success Story
close

"Will never forget my time of flight training at Dean International. I am now working as a First Officer at TACA and am enjoying every moment of it."

Alvaro

Alvaro

Because of the flight time I was able to built while instructing, I got the experience needed to apply to an airline in Colombia.

More...
Alvaro's Success Story
close

Dean alumnus Alvaro Londoño currently flies with Tampa Cargo. He says of his experience at Dean: "I want to take this opportunity to thank you for giving me the chance to build my experience and expand my knowledge in Dean International. Because of the flight time I was able to built flight instructing, I got the experience needed to apply to an airline in Colombia."

Ralph

Ralph

Every Aruban student of Dean International has made it into Tiara Air Aruba, that is very nice.

More...
Ralph's Success Story
close

"Next to me is my Co-Pilot, Elison. This picture was taken on our first flight together, which was almost exactly 5 years after I finished at Dean International. [...] Every Aruban student of Dean International has made it into Tiara Air Aruba. [...] The future looks bright here in Aruba."

Rohaan

Rohaan

The [..] staff will all work diligently to help you finish your certificates as safely and efficiently as possible.

More...
Rohaan's Success Story
close

After receiving very hard times from other flight schools [...], I came to Dean International where Robert Dean personally sat down with me and gave me a financial and chronological look into how much remained to finish my private pilot certificate. Through his hard efforts as an instructor and mentor, I was able to finish my private pilot certificate within one week.

Welcome to Dean International

In over two decades, Dean International has educated over 7,000 pilots from all over the world, including over 1,000 students from India alone. By offering a great training experience, a friendly service staff, an ample variety of aircraft, and by improving constantly, we have become one of the largest, most prestigious FAA 141-approved flight schools in North America. Located in Miami, Florida, USA, our flight school offers an ideal location for year-round, "learn to fly" weather, flight training. Dean International is not only well-equipped to provide services to professional trainees but also caters to General Aviation renters. Visit or contact our headquarters at Kendall-Tamiami Executive Airport located in Miami, FL today to learn more about us, or simply read more about our programs if you are an international student interested in joining our school.

Local Airport Information
TAF FOR KTMB (Issued: Wed, April 1st 2015 6:36 PM UTC)
TAF KTMB 011733Z 0118/0218 06003KT P6SM SCT050
      FM011900 11008KT P6SM SCT050
      FM020200 VRB03KT P6SM FEW250
     
METAR FOR KTMB (Issued: Wed, April 1st 2015 4:53 PM UTC):
KTMB 011653Z 06003KT 10SM SCT050 27/14 A3015 RMK AO2 SLP209 T02670139

This weather information is provided by the National Weather Service.
It is automatically refreshed every three minutes.
TAF FOR KHST (Issued: Wed, April 1st 2015 4:06 PM UTC)
TAF KHST 0116/0222 VRB06KT 9999 SKC QNH3006INS
      BECMG 0214/0215 10012G20KT 9999 SCT150 QNH3010INS TX28/0117Z TN18/0208Z
     
METAR FOR KHST (Issued: Wed, April 1st 2015 4:58 PM UTC):
KHST 011658Z AUTO 07006KT 10SM CLR 27/14 A3015 RMK AO2 SLP213 T02690142

This weather information is provided by the National Weather Service.
It is automatically refreshed every three minutes.
TAF FOR KOPF (Issued: Wed, April 1st 2015 6:36 PM UTC)
TAF KOPF 011733Z 0118/0218 VRB03KT P6SM SCT050
      FM011900 11008KT P6SM SCT040
      FM020000 15006KT P6SM SCT040
      FM020300 VRB04KT P6SM FEW250
     
METAR FOR KOPF (Issued: Wed, April 1st 2015 4:53 PM UTC):
KOPF 011653Z 06003KT 10SM SCT050 28/14 A3015 RMK AO2 SLP212 T02780139

This weather information is provided by the National Weather Service.
It is automatically refreshed every three minutes.
TAF FOR KMIA (Issued: Wed, April 1st 2015 6:39 PM UTC)
TAF KMIA 011733Z 0118/0218 05005KT P6SM SCT050 SCT250
      FM011900 10008KT P6SM SCT040 SCT250
      FM020000 15008KT P6SM SCT040
      FM020300 VRB04KT P6SM FEW250
     
METAR FOR KMIA (Issued: Wed, April 1st 2015 4:53 PM UTC):
KMIA 011653Z 05005KT 10SM SCT050 BKN250 27/13 A3015 RMK AO2 SLP210 T02670133

This weather information is provided by the National Weather Service.
It is automatically refreshed every three minutes.
Design by Ariel Llizo
© Dean International Inc. 2012